This is the latest recevied weather packets stored in our database for station/object DJ6OI-23. If no packets are shown the sender has not sent any weather packets the latest 10 day(s).
| Time | Temp. | Humidity | Pressure | Rain* | Wind** | Luminosity | Snow |
|---|---|---|---|---|---|---|---|
| 1777431429 | 3.89° C | 58% | 1005.4 hPa | 0 mm | - | - | - |
| 1777430494 | 5° C | 57% | 1005.2 hPa | 0 mm | - | - | - |
| 1777429560 | 5° C | 56% | 1005.2 hPa | 0 mm | - | - | - |
| 1777428624 | 5.56° C | 56% | 1005.3 hPa | 0 mm | - | - | - |
| 1777427690 | 5.56° C | 55% | 1005.3 hPa | 0 mm | - | - | - |
| 1777426755 | 6.11° C | 53% | 1005.1 hPa | 0 mm | - | - | - |
| 1777425820 | 6.11° C | 53% | 1005 hPa | 0 mm | - | - | - |
| 1777424885 | 6.11° C | 52% | 1005.1 hPa | 0 mm | - | - | - |
| 1777423950 | 6.11° C | 52% | 1005.2 hPa | 0 mm | - | - | - |
| 1777423015 | 6.11° C | 53% | 1005.2 hPa | 0 mm | - | - | - |
| 1777422080 | 6.67° C | 52% | 1005.2 hPa | 0 mm | - | - | - |
| 1777421145 | 6.67° C | 52% | 1005.2 hPa | 0 mm | - | - | - |
| 1777419275 | 6.67° C | 50% | 1005 hPa | 0 mm | - | - | - |
| 1777418341 | 6.67° C | 50% | 1004.9 hPa | 0 mm | - | - | - |
| 1777417406 | 7.22° C | 49% | 1004.8 hPa | 0 mm | - | - | - |
| 1777416471 | 7.22° C | 48% | 1004.8 hPa | 0 mm | - | - | - |
| 1777415536 | 6.67° C | 48% | 1004.8 hPa | 0 mm | - | - | - |
| 1777414601 | 6.67° C | 48% | 1004.7 hPa | 0 mm | - | - | - |
| 1777413666 | 6.67° C | 47% | 1004.6 hPa | 0 mm | - | - | - |
| 1777412731 | 7.22° C | 46% | 1004.6 hPa | 0 mm | - | - | - |
| 1777411796 | 7.22° C | 46% | 1004.5 hPa | 0 mm | - | - | - |
| 1777410861 | 7.78° C | 44% | 1004.4 hPa | 0 mm | - | - | - |
| 1777409926 | 8.33° C | 42% | 1004.3 hPa | 0 mm | - | - | - |
| 1777408991 | 8.89° C | 41% | 1004.3 hPa | 0 mm | - | - | - |
| 1777407122 | 9.44° C | 40% | 1004.1 hPa | 0 mm | - | - | - |
* Rain latest hour (hover to see other rain measurements)
** Current wind speed in m/s (hover to see current wind gust speed)